period_start,C,m1,H,J0,J1,J2,J3,J4,J5,JA,JB,JC,JD,JJ,JK,JN,#
2013-07-28 00:00:21,-0.06,0.10,0.00,27.07,29.68,32.11,5.95,32.58,1014.19,2044.44,3444.35,3313.04,3606.03,350.47,318.94,10.12,0000 0000 0000 0000 000000
2013-07-28 00:01:21,-0.07,0.10,0.00,27.05,29.69,32.12,5.90,32.54,1014.19,2044.42,3444.22,3313.01,3606.01,350.22,319.10,10.13,0000 0000 0000 0000 000000
2013-07-28 00:02:22,0.00,0.10,0.00,27.10,29.69,32.13,6.02,32.25,1014.19,2044.36,3444.14,3313.02,3606.02,350.16,318.93,10.13,0000 0000 0000 0000 000000
2013-07-28 00:03:22,0.01,0.10,0.00,27.06,29.70,32.13,5.89,32.38,1014.18,2044.35,3444.16,3313.02,3606.02,350.38,319.16,10.14,0000 0000 0000 0000 000000
2013-07-28 00:04:22,-0.02,0.10,0.00,27.07,29.70,32.10,5.95,32.38,1014.18,2044.32,3444.12,3313.00,3606.01,350.37,318.55,10.14,0000 0000 0000 0000 000000
2013-07-28 00:05:23,-0.01,0.10,0.00,27.07,29.70,32.12,5.88,32.46,1014.19,2044.32,3444.09,3313.00,3606.00,350.12,319.30,10.15,0000 0000 0000 0000 000000
2013-07-28 00:06:23,-0.01,0.10,0.00,27.12,29.70,32.10,5.82,32.29,1014.19,2044.29,3444.06,3313.00,3606.00,350.56,319.27,10.15,0000 0000 0000 0000 000000
2013-07-28 00:07:23,0.01,0.10,0.00,27.18,29.70,32.11,5.81,32.29,1014.18,2044.29,3444.05,3313.00,3606.00,349.10,318.06,10.16,0000 0000 0000 0000 000000
2013-07-28 00:08:23,-0.05,0.10,0.00,27.15,29.70,32.12,5.85,32.42,1014.18,2044.21,3444.03,3313.00,3606.00,349.79,318.52,10.17,0000 0000 0000 0000 000000
2013-07-28 00:09:24,-0.04,0.10,0.00,27.15,29.70,32.14,5.89,32.42,1014.18,2044.22,3444.03,3313.00,3606.00,349.93,318.55,10.17,0000 0000 0000 0000 000000
2013-07-28 00:10:24,0.02,0.10,0.00,27.15,29.70,32.17,5.80,32.46,1014.18,2044.19,3444.01,3313.00,3606.00,350.05,318.77,10.18,0000 0000 0000 0000 000000
2013-07-28 00:11:24,-0.02,0.10,0.00,27.16,29.70,32.15,5.88,32.38,1014.18,2044.13,3444.00,3313.00,3606.00,349.80,318.53,10.18,0000 0000 0000 0000 000000
2013-07-28 00:12:25,-0.03,0.10,0.00,27.19,29.72,32.12,5.97,32.38,1014.18,2044.10,3444.00,3313.00,3606.00,350.04,318.63,10.19,0000 0000 0000 0000 000000
2013-07-28 00:13:25,-0.01,0.10,0.00,27.19,29.72,32.13,5.89,32.17,1014.18,2044.07,3444.00,3313.00,3606.00,349.94,318.61,10.20,0000 0000 0000 0000 000000
2013-07-28 00:14:25,-0.02,0.10,0.00,27.16,29.72,32.13,5.81,32.25,1014.18,2044.05,3444.00,3313.00,3606.00,349.55,318.37,10.20,0000 0000 0000 0000 000000
2013-07-28 00:15:25,-0.01,0.10,0.00,27.15,29.72,32.14,5.93,32.38,1014.18,2044.07,3444.00,3313.00,3606.00,350.26,318.96,10.21,0000 0000 0000 0000 000000
2013-07-28 00:16:26,0.00,0.10,0.00,27.12,29.72,32.14,5.79,32.38,1014.18,2044.06,3444.00,3312.99,3605.99,349.58,318.59,10.21,0000 0000 0000 0000 000000
2013-07-28 00:17:26,0.00,0.10,0.00,27.09,29.72,32.14,5.83,32.25,1014.19,2044.10,3444.00,3312.99,3605.98,349.56,318.50,10.22,0000 0000 0000 0000 000000
2013-07-28 00:18:26,0.01,0.10,0.00,27.11,29.72,32.16,5.92,32.42,1014.19,2044.07,3444.00,3312.99,3605.96,350.26,319.00,10.23,0000 0000 0000 0000 000000
2013-07-28 00:19:26,-0.00,0.10,0.00,27.15,29.72,32.20,5.71,32.46,1014.18,2044.05,3444.00,3312.99,3605.95,349.09,318.08,10.23,0000 0000 0000 0000 000000
2013-07-28 00:20:27,-0.01,0.10,0.00,27.12,29.73,32.19,5.79,32.33,1014.18,2044.05,3444.00,3312.99,3605.95,349.99,318.75,10.24,0000 0000 0000 0000 000000
2013-07-28 00:21:27,-0.01,0.10,0.00,27.13,29.74,32.19,5.95,32.46,1014.18,2044.03,3444.00,3312.98,3605.96,350.54,319.23,10.24,0000 0000 0000 0000 000000
2013-07-28 00:22:27,-0.01,0.10,0.00,27.12,29.75,32.19,5.98,32.42,1014.18,2044.03,3444.00,3312.98,3605.93,350.08,318.82,10.25,0000 0000 0000 0000 000000
2013-07-28 00:23:27,-0.01,0.10,0.00,27.10,29.75,32.18,5.95,32.38,1014.18,2044.02,3444.00,3312.98,3605.92,349.87,318.88,10.25,0000 0000 0000 0000 000000
2013-07-28 00:24:27,0.00,0.10,0.00,27.14,29.75,32.20,5.84,32.50,1014.18,2044.02,3443.98,3312.97,3605.89,349.65,318.42,10.26,0000 0000 0000 0000 000000
2013-07-28 00:25:28,0.01,0.10,0.00,27.22,29.75,32.23,5.98,32.33,1014.18,2044.02,3443.98,3312.94,3605.84,350.40,318.98,10.27,0000 0000 0000 0000 000000
2013-07-28 00:26:28,0.01,0.10,0.00,27.22,29.75,32.23,5.95,32.33,1014.18,2044.01,3443.97,3312.91,3605.72,350.35,319.19,10.27,0000 0000 0000 0000 000000
2013-07-28 00:27:28,0.01,0.10,0.00,27.23,29.75,32.24,5.84,32.33,1014.18,2044.00,3443.94,3312.84,3605.53,349.87,318.59,10.28,0000 0000 0000 0000 000000
2013-07-28 00:28:28,0.04,0.10,0.00,27.26,29.75,32.24,5.82,32.33,1014.18,2044.00,3443.85,3312.65,3605.28,349.89,317.91,10.28,0000 0000 0000 0000 000000
2013-07-28 00:29:29,0.06,0.10,0.00,27.24,29.76,32.24,5.93,32.21,1014.18,2044.00,3443.78,3312.55,3605.16,350.39,319.03,10.29,0000 0000 0000 0000 000000
2013-07-28 00:30:29,0.05,0.10,0.00,27.22,29.77,32.23,5.83,32.33,1014.18,2044.00,3443.71,3312.42,3605.11,350.00,318.64,10.30,0000 0000 0000 0000 000000
2013-07-28 00:31:29,0.03,0.10,0.00,27.26,29.77,32.24,5.83,32.50,1014.18,2044.00,3443.61,3312.34,3605.07,349.52,318.17,10.30,0000 0000 0000 0000 000000
2013-07-28 00:32:30,0.02,0.10,0.00,27.25,29.77,32.25,5.88,32.63,1014.18,2044.00,3443.76,3312.38,3605.07,350.95,319.48,10.31,0000 0000 0000 0000 000000
2013-07-28 00:33:30,-0.03,0.10,0.00,27.24,29.77,32.24,5.81,32.13,1014.18,2044.00,3443.82,3312.40,3605.06,350.26,318.86,10.31,0000 0000 0000 0000 000000
2013-07-28 00:34:30,-0.01,0.10,0.00,27.24,29.77,32.24,5.89,32.54,1014.18,2044.01,3443.72,3312.38,3605.07,350.13,318.70,10.32,0000 0000 0000 0000 000000
2013-07-28 00:35:30,0.04,0.10,0.00,27.23,29.77,32.25,5.88,32.42,1014.18,2044.00,3443.56,3312.23,3605.04,349.96,319.10,10.32,0000 0000 0000 0000 000000
2013-07-28 00:36:31,0.04,0.10,0.00,27.23,29.77,32.27,5.77,32.50,1014.18,2044.00,3443.43,3312.17,3605.03,349.17,318.29,10.33,0000 0000 0000 0000 000000
2013-07-28 00:37:31,0.02,0.10,0.00,27.22,29.77,32.27,5.91,32.25,1014.18,2044.00,3443.34,3312.09,3605.01,350.07,318.93,10.34,0000 0000 0000 0000 000000
2013-07-28 00:38:31,0.02,0.10,0.00,27.25,29.78,32.27,6.01,32.38,1014.17,2044.00,3443.21,3312.07,3605.01,350.77,319.26,10.34,0000 0000 0000 0000 000000
2013-07-28 00:39:32,0.03,0.10,0.00,27.22,29.79,32.27,5.88,32.46,1014.17,2044.00,3443.11,3312.03,3605.00,350.14,318.77,10.35,0000 0000 0000 0000 000000
2013-07-28 00:40:32,0.02,0.10,0.00,27.26,29.80,32.30,5.91,32.21,1014.17,2044.00,3443.08,3312.01,3605.00,350.43,319.18,10.35,0000 0000 0000 0000 000000
2013-07-28 00:41:32,0.00,0.10,0.00,27.27,29.80,32.29,5.82,32.13,1014.17,2044.00,3443.04,3312.00,3605.00,349.26,317.96,10.36,0000 0000 0000 0000 000000
2013-07-28 00:42:33,0.00,0.10,0.00,27.28,29.80,32.29,5.89,32.75,1014.17,2044.00,3443.01,3312.00,3605.00,350.12,318.23,10.37,0000 0000 0000 0000 000000
2013-07-28 00:43:33,0.00,0.10,0.00,27.30,29.80,32.27,5.90,32.75,1014.17,2044.00,3443.02,3312.00,3604.98,350.23,318.76,10.37,0000 0000 0000 0000 000000
2013-07-28 00:44:33,0.00,0.10,0.00,27.32,29.80,32.30,6.02,32.67,1014.17,2044.00,3443.01,3312.00,3604.98,350.23,318.57,10.38,0000 0000 0000 0000 000000
2013-07-28 00:45:33,0.00,0.10,0.00,27.29,29.80,32.30,5.77,32.50,1014.17,2044.00,3443.00,3312.00,3604.99,350.48,318.40,10.38,0000 0000 0000 0000 000000
2013-07-28 00:46:34,0.00,0.10,0.00,27.29,29.82,32.31,5.99,32.33,1014.17,2044.00,3443.00,3312.00,3604.99,350.18,318.74,10.39,0000 0000 0000 0000 000000
2013-07-28 00:47:34,0.00,0.10,0.00,27.27,29.82,32.33,5.88,32.58,1014.17,2044.00,3443.00,3312.00,3604.99,350.19,318.59,10.39,0000 0000 0000 0000 000000
2013-07-28 00:48:34,0.00,0.10,0.00,27.34,29.82,32.35,5.92,32.46,1014.16,2044.00,3443.00,3312.00,3604.97,350.02,318.54,10.40,0000 0000 0000 0000 000000
2013-07-28 00:49:34,0.00,0.10,0.00,27.38,29.82,32.35,5.84,32.42,1014.17,2044.00,3443.00,3312.00,3604.95,349.77,318.26,10.41,0000 0000 0000 0000 000000
2013-07-28 00:50:35,0.00,0.10,0.00,27.35,29.82,32.35,5.84,32.46,1014.16,2044.00,3443.00,3312.00,3604.90,350.08,318.21,10.41,0000 0000 0000 0000 000000
2013-07-28 00:51:35,0.00,0.10,0.00,27.38,29.82,32.35,5.89,32.54,1014.17,2043.99,3443.00,3312.00,3604.91,349.57,318.09,10.42,0000 0000 0000 0000 000000
2013-07-28 00:52:35,-0.01,0.10,0.00,27.38,29.83,32.35,5.83,32.42,1014.17,2043.98,3443.00,3312.00,3604.91,349.50,318.03,10.42,0000 0000 0000 0000 000000
2013-07-28 00:53:35,-0.00,0.10,0.00,27.38,29.84,32.36,5.95,32.42,1014.17,2043.98,3443.00,3312.00,3604.85,350.79,319.16,10.43,0000 0000 0000 0000 000000
2013-07-28 00:54:36,0.03,0.10,0.00,27.38,29.85,32.37,5.95,32.63,1014.17,2043.99,3442.97,3311.99,3604.56,349.76,317.97,10.44,0000 0000 0000 0000 000000
2013-07-28 00:55:36,0.03,0.10,0.00,27.32,29.85,32.37,5.89,32.42,1014.17,2043.98,3442.97,3311.99,3604.40,350.13,318.52,10.44,0000 0000 0000 0000 000000
2013-07-28 00:56:36,0.01,0.10,0.00,27.34,29.85,32.37,5.93,32.13,1014.17,2043.97,3442.98,3311.99,3604.31,350.25,318.64,10.45,0000 0000 0000 0000 000000
2013-07-28 00:57:36,0.01,0.10,0.00,27.36,29.85,32.37,5.97,32.29,1014.17,2043.96,3442.95,3311.97,3604.27,350.37,318.62,10.45,0000 0000 0000 0000 000000
2013-07-28 00:58:36,0.01,0.10,0.00,27.37,29.85,32.37,5.75,32.33,1014.17,2043.96,3442.94,3311.97,3604.20,348.77,317.85,10.46,0000 0000 0000 0000 000000
2013-07-28 00:59:37,0.01,0.10,0.00,27.36,29.86,32.37,5.88,32.58,1014.15,2043.97,3442.90,3311.89,3604.11,350.90,319.30,10.47,0000 0000 0000 0000 000000
2013-07-28 01:00:37,0.03,0.10,0.00,27.36,29.87,32.38,5.89,32.38,1014.14,2043.97,3442.82,3311.89,3604.04,349.53,317.92,10.47,0000 0000 0000 0000 000000
2013-07-28 01:01:37,0.01,0.10,0.00,27.44,29.87,32.39,5.89,32.54,1014.10,2043.94,3442.75,3311.81,3604.01,350.39,318.75,10.48,0000 0000 0000 0000 000000
2013-07-28 01:02:37,0.01,0.10,0.00,27.43,29.87,32.40,6.08,32.63,1014.06,2043.92,3442.65,3311.74,3604.01,350.62,318.95,10.48,0000 0000 0000 0000 000000
2013-07-28 01:03:38,0.01,0.10,0.00,27.42,29.87,32.38,5.68,32.33,1014.05,2043.94,3442.48,3311.53,3604.00,349.66,317.98,10.49,0000 0000 0000 0000 000000
2013-07-28 01:04:38,0.08,0.10,0.00,27.40,29.87,32.39,5.93,32.46,1013.94,2043.96,3442.40,3311.45,3604.01,350.34,318.70,10.49,0000 0000 0000 0000 000000
2013-07-28 01:05:38,0.04,0.10,0.00,27.39,29.88,32.39,5.94,32.42,1013.95,2043.95,3442.32,3311.41,3604.01,349.53,317.77,10.50,0000 0000 0000 0000 000000
2013-07-28 01:06:38,0.01,0.10,0.00,27.39,29.89,32.42,5.73,32.38,1013.84,2043.97,3442.24,3311.32,3604.00,349.45,318.28,10.51,0000 0000 0000 0000 000000
2013-07-28 01:07:39,0.04,0.10,0.00,27.42,29.90,32.40,5.87,31.92,1013.81,2043.97,3442.20,3311.22,3604.00,350.90,319.15,10.51,0000 0000 0000 0000 000000
2013-07-28 01:08:39,0.01,0.10,0.00,27.43,29.90,32.42,5.90,32.38,1013.80,2043.96,3442.18,3311.19,3604.00,349.70,318.03,10.52,0000 0000 0000 0000 000000
2013-07-28 01:09:39,0.00,0.10,0.00,27.43,29.90,32.42,5.92,32.58,1013.74,2043.90,3442.09,3311.13,3604.00,349.73,318.05,10.52,0000 0000 0000 0000 000000
2013-07-28 01:10:39,-0.03,0.10,0.00,27.45,29.90,32.43,5.89,32.25,1013.72,2043.80,3442.04,3311.07,3604.00,350.02,318.43,10.53,0000 0000 0000 0000 000000
2013-07-28 01:11:40,-0.01,0.10,0.00,27.48,29.90,32.44,5.95,32.42,1013.71,2043.77,3442.04,3311.06,3604.00,350.05,318.27,10.54,0000 0000 0000 0000 000000
2013-07-28 01:12:40,-0.08,0.10,0.00,27.52,29.91,32.45,5.83,32.08,1013.73,2043.60,3442.02,3311.04,3604.00,349.46,317.70,10.54,0000 0000 0000 0000 000000
2013-07-28 01:13:40,-0.11,0.10,0.00,27.51,29.92,32.45,5.84,32.13,1013.75,2043.62,3442.00,3311.02,3603.99,350.10,318.29,10.55,0000 0000 0000 0000 000000
2013-07-28 01:14:40,0.07,0.10,0.00,27.53,29.92,32.45,5.92,32.33,1013.84,2043.60,3442.01,3311.00,3603.99,349.77,318.01,10.55,0000 0000 0000 0000 000000
2013-07-28 01:15:40,-0.04,0.10,0.00,27.53,29.92,32.45,5.93,32.29,1013.85,2043.51,3442.01,3311.00,3603.98,350.33,318.57,10.56,0000 0000 0000 0000 000000
2013-07-28 01:16:41,-0.00,0.10,0.00,27.51,29.92,32.45,5.81,32.08,1013.86,2043.57,3442.00,3311.01,3603.99,349.81,318.07,10.57,0000 0000 0000 0000 000000
2013-07-28 01:17:41,-0.02,0.10,0.00,27.55,29.92,32.45,5.92,32.25,1013.90,2043.42,3442.01,3311.00,3603.97,350.24,318.43,10.57,0000 0000 0000 0000 000000
2013-07-28 01:18:41,-0.12,0.10,0.00,27.54,29.93,32.45,5.85,32.38,1013.89,2043.22,3442.00,3311.00,3603.88,350.28,318.42,10.58,0000 0000 0000 0000 000000
2013-07-28 01:19:41,-0.12,0.10,0.00,27.53,29.94,32.47,5.82,32.50,1013.85,2043.17,3442.00,3311.00,3603.68,349.88,318.57,10.58,0000 0000 0000 0000 000000
2013-07-28 01:20:42,-0.00,0.10,0.00,27.49,29.95,32.48,5.98,32.46,1013.91,2043.19,3442.00,3311.00,3603.69,350.14,318.50,10.59,0000 0000 0000 0000 000000
2013-07-28 01:21:42,0.02,0.10,0.00,27.44,29.95,32.49,5.84,32.33,1013.88,2043.13,3441.99,3311.00,3603.47,349.85,318.18,10.59,0000 0000 0000 0000 000000
2013-07-28 01:22:42,-0.02,0.10,0.00,27.44,29.95,32.50,5.82,32.33,1013.92,2043.06,3441.96,3311.00,3603.32,349.21,317.61,10.60,0000 0000 0000 0000 000000
2013-07-28 01:23:42,-0.02,0.10,0.00,27.45,29.95,32.49,6.00,31.96,1013.83,2043.05,3441.95,3310.98,3603.22,351.18,319.35,10.61,0000 0000 0000 0000 000000
2013-07-28 01:24:43,0.01,0.10,0.00,27.45,29.96,32.50,5.89,32.38,1013.89,2043.07,3441.96,3310.96,3603.19,350.34,318.62,10.61,0000 0000 0000 0000 000000
2013-07-28 01:25:43,0.03,0.10,0.00,27.47,29.97,32.49,5.97,32.17,1013.94,2043.09,3441.72,3310.72,3603.08,350.13,318.13,10.62,0000 0000 0000 0000 000000
2013-07-28 01:26:43,0.11,0.10,0.00,27.45,29.97,32.50,5.87,32.42,1013.92,2043.09,3441.48,3310.58,3603.03,350.20,318.93,10.62,0000 0000 0000 0000 000000
2013-07-28 01:27:43,0.05,0.10,0.00,27.46,29.97,32.51,5.83,32.29,1013.85,2043.08,3441.35,3310.37,3603.01,349.30,317.43,10.63,0000 0000 0000 0000 000000
2013-07-28 01:28:44,0.06,0.10,0.00,27.49,29.97,32.52,5.85,32.29,1013.94,2043.05,3441.13,3310.17,3603.00,350.06,318.33,10.64,0000 0000 0000 0000 000000
2013-07-28 01:29:44,0.03,0.10,0.00,27.53,29.97,32.53,5.90,32.17,1014.02,2043.04,3441.07,3310.09,3603.00,349.79,318.08,10.64,0000 0000 0000 0000 000000
2013-07-28 01:30:44,0.01,0.10,0.00,27.54,29.97,32.52,5.76,32.46,1014.07,2043.02,3441.04,3310.05,3602.99,349.64,317.95,10.65,0000 0000 0000 0000 000000
2013-07-28 01:31:44,0.00,0.10,0.00,27.55,29.98,32.52,5.91,32.29,1014.08,2043.03,3441.02,3310.03,3602.99,349.89,318.17,10.65,0000 0000 0000 0000 000000
2013-07-28 01:32:45,0.01,0.10,0.00,27.55,29.99,32.52,5.79,32.50,1014.08,2043.03,3441.01,3310.03,3602.99,349.22,318.08,10.66,0000 0000 0000 0000 000000
2013-07-28 01:33:45,0.00,0.10,0.00,27.56,30.00,32.52,5.85,32.17,1014.09,2043.02,3441.01,3310.02,3602.98,350.00,318.52,10.66,0000 0000 0000 0000 000000
2013-07-28 01:34:45,0.00,0.10,0.00,27.55,30.00,32.53,5.83,32.25,1014.05,2043.02,3441.00,3310.00,3602.92,350.21,318.66,10.67,0000 0000 0000 0000 000000
2013-07-28 01:35:45,0.00,0.10,0.00,27.57,30.00,32.54,5.88,32.38,1014.06,2043.04,3441.00,3310.00,3602.89,350.24,318.05,10.68,0000 0000 0000 0000 000000
2013-07-28 01:36:46,0.01,0.10,0.00,27.57,30.00,32.53,5.79,32.42,1014.01,2043.02,3441.00,3310.00,3602.93,350.16,318.66,10.68,0000 0000 0000 0000 000000
2013-07-28 01:37:46,-0.01,0.10,0.00,27.57,30.00,32.56,5.85,32.38,1014.02,2043.02,3441.00,3310.00,3602.79,349.65,317.75,10.69,0000 0000 0000 0000 000000
2013-07-28 01:38:46,0.02,0.10,0.00,27.57,30.01,32.57,5.80,32.00,1013.99,2043.00,3441.00,3310.00,3602.64,350.31,318.62,10.69,0000 0000 0000 0000 000000
2013-07-28 01:39:46,0.00,0.10,0.00,27.61,30.02,32.56,5.93,32.17,1013.98,2043.00,3441.00,3310.00,3602.62,349.49,318.27,10.70,0000 0000 0000 0000 000000
2013-07-28 01:40:47,0.00,0.10,0.00,27.59,30.02,32.55,5.76,32.50,1013.99,2043.00,3441.00,3310.00,3602.57,349.28,317.54,10.71,0000 0000 0000 0000 000000
2013-07-28 01:41:47,0.01,0.10,0.00,27.59,30.02,32.54,5.73,32.38,1014.07,2043.00,3441.00,3310.00,3602.29,349.42,317.70,10.71,0000 0000 0000 0000 000000
2013-07-28 01:42:47,0.03,0.10,0.00,27.58,30.02,32.55,5.76,32.42,1014.11,2043.00,3440.99,3309.95,3602.16,349.82,317.78,10.72,0000 0000 0000 0000 000000
2013-07-28 01:43:48,0.03,0.10,0.00,27.55,30.02,32.56,5.82,32.54,1014.11,2043.00,3440.97,3309.93,3602.08,350.45,319.13,10.72,0000 0000 0000 0000 000000
2013-07-28 01:44:48,0.01,0.10,0.00,27.58,30.03,32.57,5.91,32.54,1014.11,2043.00,3440.95,3309.97,3602.05,349.91,318.07,10.73,0000 0000 0000 0000 000000
2013-07-28 01:45:48,0.00,0.10,0.00,27.57,30.04,32.57,5.91,32.21,1014.15,2043.00,3440.96,3309.97,3602.03,350.39,318.35,10.74,0000 0000 0000 0000 000000
2013-07-28 01:46:48,0.00,0.10,0.00,27.58,30.05,32.56,5.84,32.25,1014.14,2043.00,3440.95,3309.98,3602.04,349.38,317.79,10.74,0000 0000 0000 0000 000000
2013-07-28 01:47:49,0.00,0.10,0.00,27.59,30.05,32.56,5.78,32.42,1014.15,2043.00,3440.90,3309.96,3602.04,349.95,318.40,10.75,0000 0000 0000 0000 000000
2013-07-28 01:48:49,0.01,0.10,0.00,27.59,30.05,32.56,5.95,32.21,1014.15,2043.00,3440.83,3309.95,3602.02,350.01,318.26,10.75,0000 0000 0000 0000 000000
2013-07-28 01:49:49,0.00,0.10,0.00,27.57,30.05,32.58,5.93,32.46,1014.16,2043.00,3440.66,3309.89,3602.01,350.06,318.32,10.76,0000 0000 0000 0000 000000
2013-07-28 01:50:50,0.05,0.10,0.00,27.58,30.05,32.59,5.92,32.13,1014.16,2043.00,3440.42,3309.89,3602.00,349.80,318.46,10.76,0000 0000 0000 0000 000000
2013-07-28 01:51:50,0.03,0.10,0.00,27.60,30.05,32.60,5.86,32.33,1014.17,2043.00,3440.41,3309.88,3602.00,350.15,318.39,10.77,0000 0000 0000 0000 000000
2013-07-28 01:52:50,-0.01,0.10,0.00,27.62,30.07,32.60,5.82,32.17,1014.16,2043.00,3440.26,3309.78,3602.00,350.08,318.16,10.78,0000 0000 0000 0000 000000
2013-07-28 01:53:50,0.05,0.10,0.00,27.60,30.07,32.59,5.92,32.17,1014.16,2043.00,3440.17,3309.68,3602.00,350.97,319.26,10.78,0000 0000 0000 0000 000000
2013-07-28 01:54:51,0.04,0.11,0.00,27.62,30.07,32.60,5.94,32.21,1014.17,2042.98,3440.09,3309.41,3602.00,350.41,318.12,10.79,0000 0000 0000 0000 000000
2013-07-28 01:55:51,0.04,0.11,0.00,27.62,30.07,32.59,6.01,32.38,1014.15,2042.98,3440.03,3309.27,3601.98,350.83,319.10,10.79,0000 0000 0000 0000 000000
2013-07-28 01:56:51,0.05,0.11,0.00,27.63,30.07,32.60,5.89,31.88,1014.15,2042.99,3440.02,3309.16,3601.96,349.86,318.09,10.80,0000 0000 0000 0000 000000
2013-07-28 01:57:51,0.02,0.11,0.00,27.63,30.08,32.60,5.86,32.21,1014.16,2042.98,3440.01,3309.09,3601.93,349.74,317.97,10.81,0000 0000 0000 0000 000000
2013-07-28 01:58:52,0.00,0.11,0.00,27.60,30.09,32.60,5.97,32.13,1014.17,2042.98,3440.00,3309.07,3601.96,350.42,318.49,10.81,0000 0000 0000 0000 000000
2013-07-28 01:59:52,-0.01,0.11,0.00,27.61,30.10,32.62,5.88,32.25,1014.16,2042.98,3440.00,3309.06,3601.95,350.57,318.41,10.82,0000 0000 0000 0000 000000
2013-07-28 02:00:52,0.02,0.11,0.00,27.65,30.10,32.65,5.93,32.13,1014.15,2042.98,3440.00,3309.03,3601.92,350.12,318.46,10.82,0000 0000 0000 0000 000000
2013-07-28 02:01:52,0.01,0.11,0.00,27.65,30.10,32.64,5.80,32.13,1014.14,2042.98,3440.00,3309.04,3601.93,349.73,318.06,10.83,0000 0000 0000 0000 000000
2013-07-28 02:02:52,0.00,0.11,0.00,27.62,30.10,32.63,5.92,32.33,1014.16,2042.96,3440.00,3309.02,3601.88,350.14,318.54,10.83,0000 0000 0000 0000 000000
2013-07-28 02:03:53,0.00,0.11,0.00,27.58,30.10,32.64,5.88,32.46,1014.17,2042.94,3440.00,3309.01,3601.82,350.31,319.13,10.84,0000 0000 0000 0000 000000
2013-07-28 02:04:53,0.00,0.11,0.00,27.59,30.11,32.64,5.89,32.29,1014.17,2042.95,3440.00,3309.00,3601.72,349.79,318.32,10.85,0000 0000 0000 0000 000000
2013-07-28 02:05:53,0.01,0.11,0.00,27.60,30.11,32.64,5.83,32.13,1014.17,2042.92,3440.00,3309.00,3601.61,350.55,318.74,10.85,0000 0000 0000 0000 000000
2013-07-28 02:06:53,-0.01,0.11,0.00,27.60,30.12,32.65,5.83,32.29,1014.17,2042.90,3440.00,3309.00,3601.36,350.88,318.96,10.86,0000 0000 0000 0000 000000
2013-07-28 02:07:53,0.02,0.11,0.00,27.58,30.12,32.65,5.86,32.25,1014.17,2042.91,3440.00,3309.00,3601.31,350.08,318.70,10.86,0000 0000 0000 0000 000000
2013-07-28 02:08:53,0.00,0.11,0.00,27.58,30.12,32.65,6.04,32.42,1014.17,2042.91,3440.00,3309.00,3601.23,351.03,319.28,10.87,0000 0000 0000 0000 000000
2013-07-28 02:09:53,0.01,0.11,0.00,27.61,30.12,32.66,5.88,32.29,1014.17,2042.89,3439.98,3309.00,3601.11,350.02,318.12,10.88,0000 0000 0000 0000 000000
2013-07-28 02:10:53,0.00,0.11,0.00,27.64,30.12,32.65,5.89,32.38,1014.17,2042.86,3439.97,3309.00,3601.06,349.69,317.79,10.88,0000 0000 0000 0000 000000
2013-07-28 02:11:53,-0.02,0.11,0.00,27.66,30.13,32.64,5.89,32.29,1014.17,2042.71,3439.95,3308.97,3601.04,350.00,318.10,10.89,0000 0000 0000 0000 000000
2013-07-28 02:12:54,-0.14,0.11,0.00,27.68,30.14,32.65,5.88,32.13,1014.17,2042.67,3439.92,3308.98,3601.02,349.76,317.94,10.89,0000 0000 0000 0000 000000
2013-07-28 02:13:54,0.02,0.11,0.00,27.69,30.15,32.68,5.78,32.21,1014.17,2042.78,3439.95,3308.99,3601.02,349.25,317.47,10.90,0000 0000 0000 0000 000000
2013-07-28 02:14:54,0.11,0.11,0.00,27.73,30.15,32.68,6.03,32.21,1014.17,2042.63,3439.79,3308.98,3601.00,350.88,318.90,10.90,0000 0000 0000 0000 000000
2013-07-28 02:15:55,-0.17,0.10,0.00,27.72,30.15,32.66,5.92,32.25,1014.17,2042.43,3439.63,3308.97,3601.00,349.80,317.88,10.91,0000 0000 0000 0000 000000
2013-07-28 02:16:55,-0.11,0.10,0.00,27.71,30.15,32.67,6.04,32.25,1014.17,2042.39,3439.41,3308.95,3601.00,350.60,318.67,10.92,0000 0000 0000 0000 000000
2013-07-28 02:17:55,0.05,0.10,0.00,27.73,30.15,32.67,5.90,32.21,1014.17,2042.30,3439.31,3308.85,3601.00,349.95,318.06,10.92,0000 0000 0000 0000 000000
2013-07-28 02:18:55,-0.01,0.10,0.00,27.72,30.15,32.69,5.90,32.33,1014.17,2042.21,3439.17,3308.70,3601.00,350.47,318.55,10.93,0000 0000 0000 0000 000000
2013-07-28 02:19:55,-0.07,0.10,0.00,27.68,30.17,32.69,5.93,32.21,1014.17,2042.18,3439.09,3308.59,3601.00,350.12,318.10,10.93,0000 0000 0000 0000 000000
2013-07-28 02:20:56,0.02,0.10,0.00,27.66,30.17,32.69,5.81,32.33,1014.17,2042.20,3439.07,3308.54,3601.00,349.36,317.59,10.94,0000 0000 0000 0000 000000
2013-07-28 02:21:56,0.05,0.10,0.00,27.70,30.17,32.71,5.93,32.33,1014.17,2042.17,3439.06,3308.43,3600.99,350.95,318.67,10.95,0000 0000 0000 0000 000000
2013-07-28 02:22:56,-0.01,0.10,0.00,27.68,30.17,32.70,5.80,32.21,1014.17,2042.12,3439.02,3308.30,3600.98,349.86,317.73,10.95,0000 0000 0000 0000 000000
2013-07-28 02:23:56,0.00,0.10,0.00,27.70,30.17,32.71,5.77,32.04,1014.17,2042.09,3439.03,3308.24,3600.99,349.28,317.96,10.96,0000 0000 0000 0000 000000
2013-07-28 02:24:56,-0.03,0.10,0.00,27.70,30.17,32.72,5.81,32.25,1014.17,2042.07,3439.05,3308.23,3600.99,349.82,317.97,10.96,0000 0000 0000 0000 000000
2013-07-28 02:25:56,0.00,0.10,0.00,27.68,30.18,32.73,5.87,32.21,1014.17,2042.05,3439.02,3308.16,3600.91,349.54,317.96,10.97,0000 0000 0000 0000 000000
2013-07-28 02:26:56,0.00,0.10,0.00,27.68,30.19,32.71,5.71,32.13,1014.17,2042.03,3439.00,3308.09,3600.65,349.12,317.55,10.97,0000 0000 0000 0000 000000
2013-07-28 02:27:56,0.05,0.10,0.00,27.68,30.20,32.72,5.73,32.17,1014.17,2042.01,3439.00,3308.04,3600.43,349.25,317.56,10.98,0000 0000 0000 0000 000000
2013-07-28 02:28:57,0.00,0.10,0.00,27.68,30.20,32.72,5.96,32.21,1014.16,2042.01,3439.00,3308.02,3600.32,350.08,318.29,10.99,0000 0000 0000 0000 000000
2013-07-28 02:29:57,0.02,0.10,0.00,27.70,30.20,32.73,5.90,32.17,1014.16,2042.00,3439.00,3308.00,3600.24,350.08,318.22,10.99,0000 0000 0000 0000 000000
2013-07-28 02:30:57,0.00,0.10,0.00,27.71,30.20,32.73,5.95,32.25,1014.16,2042.01,3439.00,3308.00,3600.30,350.17,318.27,11.00,0000 0000 0000 0000 000000
2013-07-28 02:31:57,0.00,0.10,0.00,27.70,30.20,32.71,5.88,32.29,1014.16,2042.00,3439.00,3308.00,3600.24,349.85,317.74,11.00,0000 0000 0000 0000 000000
2013-07-28 02:32:58,0.00,0.10,0.00,27.71,30.21,32.73,5.98,32.21,1014.14,2042.00,3439.00,3308.00,3600.17,350.11,318.26,11.01,0000 0000 0000 0000 000000
2013-07-28 02:33:58,0.00,0.10,0.00,27.73,30.22,32.73,5.86,32.33,1014.13,2042.01,3438.99,3308.00,3600.14,350.60,318.63,11.02,0000 0000 0000 0000 000000
2013-07-28 02:34:58,0.01,0.10,0.00,27.76,30.22,32.74,6.00,32.33,1014.13,2042.01,3438.98,3308.00,3600.10,350.53,318.24,11.02,0000 0000 0000 0000 000000
2013-07-28 02:35:58,0.00,0.10,0.00,27.77,30.22,32.75,5.73,32.25,1014.14,2042.00,3438.98,3308.00,3600.05,349.59,317.89,11.03,0000 0000 0000 0000 000000